DIAMANT R/B, 2671

Orbit data source: Space-Track

DIAMANT R/B, 2671 is space debris in LEO originally from a launch on Wed, 08 Feb 1967 UTC launched from the Hamma Guira Space Track Range (HGSTR). Debris objects in space refer to the collection of defunct objects orbiting the Earth. Examples of debris include non-operational satellites, rocket bodies, and fragments generated from explosions, collisions, or faulty payload assembly.

Loading next visibility...
Identifier
2671, 1967-011B
Orbit
LEO
Last TLE update
18 hours ago
Origin
Manufacturer
Sud
Mission
Spacecraft
Bus & Motor
RUBIS, Unknown motor
Mass
65 kg wet, 65 kg dry
Launch date (UTC)
1967-02-08 (58 years ago)
Launch vehicle
Unknown
Launch site
Hamma Guira Space Track Range (HGSTR)
Object type
Payload
Rocket body
Debris
Shape & HBR
Cyl, 2.1 m
Radar Cross Section
1.347 m², Large (>1 m²)

Expand to show TLE details & history

TLE from 18 hours ago
0 DIAMANT R/B
1 02671U 67011B   25186.15419513  .00000558  00000-0  12769-3 0  9998
2 02671  39.9473 123.0787 0338638 267.4597  88.7371 14.33045683  5705
Epoch: 2025-07-05T03:42Z
TLE epoch observation values (Epoch: 2025-07-05T03:42:02.459Z)
Latitude
0.00002°
Longitude
144.17217°
Altitude
783.893 km
Speed
7.462 km/s
True Right ascension
08h 12m 18s
True Declination
0° 00' 00"
Sunlit
Object was in daylight at epoch
Visualization orbit readout
Latitude
-39.98997°
Longitude
55.46879°
Altitude
551.029 km
Speed
7.714 km/s
Apparent Right ascension
00h 04m 48s
Apparent Declination
-45° 22' 37"
Sunlit
Object is in daylight
Visualization observer readout
Local Sidereal Time
09:39:06
Azimuth
246.284° WSW
Elevation
-62.9°
Doppler factor
1
Orbital elements
Apogee altitude
1,026.459 km
Perigee altitude
541.39 km
Semi-major axis
7,162.062 km
Eccentricity
0.03386
Inclination
39.9473°
RAAN
123.0787°
Arg. of periapsis
267.4597°
True anomaly
Unknown
Mean anomaly
88.7371°
Eccentric anomaly
Unknown
Mean motion
3.58085 °/min
Orbital period
100.53 mins
BSTAR
0.00012769
Loading maneuver chart data...
Loading SW <> Apogee altitude chart data...

DIAMANT R/B Visibility forecast

Observer location: undefined°, undefined°

Span
Click to sort rows by Start time (UTC) header in descending order
Start Az.
Max El. time (UTC)
Max El. Az.
Max El.
End time (UTC)
End Az.
9 mins2025-07-05 22:16:02.211Z195.628° SSW2025-07-05 22:20:02.211Z150.855° SSE24.604°2025-07-05 22:25:02.211Z93.978° ESE
11 mins2025-07-06 00:01:02.211Z239.773° WSW2025-07-06 00:06:02.211Z168.334° S42.632°2025-07-06 00:12:02.211Z81.73° E
12 mins2025-07-06 01:47:02.211Z268.675° W2025-07-06 01:53:02.211Z85.931° E44.494°2025-07-06 01:59:02.211Z90.136° ESE
11 mins2025-07-06 03:34:02.211Z276.853° WNW2025-07-06 03:39:02.211Z195.193° SSW43.288°2025-07-06 03:45:02.211Z116.145° SE
9 mins2025-07-06 05:21:02.211Z261.148° W2025-07-06 05:25:02.211Z210.529° SW26.77°2025-07-06 05:30:02.211Z156.699° SSE
|